Norfolk, NE

4:27 PM CDT on September 26, 2017 (GMT -0500)
Stefan Memorial

Weather History for KOFK - July, 2013

Change the Weather History Date:

Friday, July 19, 2013

  Actual Average Record
Temperature  
Mean Temperature 79 °F 75 °F  
Max Temperature 94 °F 87 °F 113 °F (1934)
Min Temperature 63 °F 64 °F 48 °F (1947)
Degree Days  
Heating Degree Days 0 0  
Month to date heating degree days 0 0  
Since 1 June heating degree days 42 30  
Since 1 July heating degree days 0 0  
Cooling Degree Days 14 10  
Month to date cooling degree days 220 188  
Year to date cooling degree days 467 435  
Since 1 June cooling degree days 403 374  
Growing Degree Days 32 (Base 50)    
Moisture  
Dew Point 59 °F    
Average Humidity 54    
Maximum Humidity 84    
Minimum Humidity 24    
Precipitation  
Precipitation 0.00 in 0.10 in 2.55 in (1965)
Month to date precipitation 0.53 2.09  
Year to date precipitation 14.13 16.05  
Snow  
Snow 0.00 in 0.00 in - ()
Month to date snowfall 0.0 0.0  
Since 1 July snowfall 0.0 0.0  
Snow Depth 0.00 in    
Sea Level Pressure  
Sea Level Pressure 29.90 in    
Wind  
Wind Speed 8 mph (NW)    
Max Wind Speed 18 mph    
Max Gust Speed 25 mph    
Visibility 10 miles    
Events Thunderstorm    
T = Trace of Precipitation, MM = Missing Value Source: NWS Daily Summary

Daily Weather History Graph

Daily Weather History Graph

Search for Another Location

Airport or City:

Trip Planner

Search our weather history database for the weather conditions in past years. The results will help you decide how hot, cold, wet, or windy it might be!

Date:

Astronomy

Jul. 19, 2013 Rise Set
Actual Time 6:11 AM CDT 9:00 PM CDT
Civil Twilight 5:38 AM CDT 9:33 PM CDT
Nautical Twilight 4:56 AM CDT 10:14 PM CDT
Astronomical Twilight 4:08 AM CDT 11:02 PM CDT
Moon 6:04 PM CDT (7/19) 2:53 AM CDT (7/19)
Length of Visible Light 15h 55m
Length of Day
14h 49m
Waxing Gibbous, 87% of the Moon is Illuminated
Jul 19
Waxing Gibbous
Jul 22
Full
Jul 29
Last Quarter
Aug 6
New
Aug 14
First Quarter

Hourly Weather History & Observations

Time (CDT) Temp. Heat Index Dew Point Humidity Pressure Visibility Wind Dir Wind Speed Gust Speed Precip Events Conditions
12:56 AM 79.0 °F - 64.9 °F 62% 29.87 in 10.0 mi South 17.3 mph 23.0 mph N/A   Clear
1:56 AM 78.1 °F - 64.0 °F 62% 29.87 in 10.0 mi SSW 16.1 mph 23.0 mph N/A   Clear
2:56 AM 78.1 °F - 63.0 °F 60% 29.86 in 10.0 mi SSW 17.3 mph 21.9 mph N/A   Clear
3:56 AM 78.1 °F - 63.0 °F 60% 29.86 in 10.0 mi SW 11.5 mph - N/A   Mostly Cloudy
4:56 AM 78.1 °F - 63.0 °F 60% 29.85 in 10.0 mi SW 10.4 mph - N/A   Partly Cloudy
5:56 AM 75.9 °F - 64.0 °F 67% 29.86 in 10.0 mi WSW 3.5 mph - N/A   Mostly Cloudy
6:41 AM 75.2 °F - 64.4 °F 69% 29.91 in 10.0 mi SSW 8.1 mph - N/A Thunderstorm Thunderstorm
6:56 AM 75.0 °F - 64.0 °F 69% 29.87 in 10.0 mi SSW 5.8 mph - N/A   Clear
7:56 AM 77.0 °F - 64.9 °F 66% 29.89 in 10.0 mi SW 9.2 mph - N/A   Partly Cloudy
8:56 AM 81.0 °F 82.7 °F 64.9 °F 58% 29.91 in 10.0 mi Calm Calm - N/A   Clear
9:56 AM 84.0 °F 86.3 °F 66.0 °F 55% 29.92 in 10.0 mi NNE 4.6 mph - N/A   Clear
10:56 AM 90.0 °F 89.7 °F 60.1 °F 37% 29.91 in 10.0 mi NNE 12.7 mph - N/A   Clear
11:56 AM 91.9 °F 90.0 °F 55.0 °F 29% 29.92 in 10.0 mi NNE 11.5 mph - N/A   Clear
12:56 PM 90.0 °F 90.6 °F 63.0 °F 40% 29.93 in 10.0 mi North 9.2 mph 17.3 mph N/A   Clear
1:56 PM 91.9 °F 92.5 °F 62.1 °F 37% 29.93 in 10.0 mi NNW 16.1 mph 20.7 mph N/A   Clear
2:56 PM 91.0 °F 89.7 °F 57.0 °F 32% 29.92 in 10.0 mi Variable 5.8 mph - N/A   Clear
3:56 PM 91.0 °F 88.7 °F 54.0 °F 28% 29.92 in 10.0 mi NNW 9.2 mph 16.1 mph N/A   Clear
4:56 PM 91.0 °F - 52.0 °F 26% 29.91 in 10.0 mi North 10.4 mph - N/A   Clear
5:56 PM 90.0 °F - 48.0 °F 24% 29.90 in 10.0 mi North 6.9 mph - N/A   Clear
6:56 PM 88.0 °F - 51.1 °F 28% 29.90 in 10.0 mi NNW 8.1 mph - N/A   Clear
7:56 PM 84.0 °F - 50.0 °F 31% 29.90 in 10.0 mi North 8.1 mph - N/A   Clear
8:56 PM 79.0 °F - 52.0 °F 39% 29.91 in 10.0 mi Calm Calm - N/A   Clear
9:56 PM 73.0 °F - 55.9 °F 55% 29.92 in 9.0 mi Calm Calm - N/A   Clear
10:56 PM 70.0 °F - 57.0 °F 63% 29.92 in 10.0 mi NNW 3.5 mph - N/A   Clear
11:56 PM 63.0 °F - 57.0 °F 81% 29.95 in 10.0 mi Calm Calm - N/A   Clear